MUOS-1

Last updated on Thu Nov 21 2024 00:02:42 GMT+0000 (Coordinated Universal Time)

1 38093U 12009A 24325.45596243 -.00000126 00000+0 00000+0 0 9997 2 38093 4.3341 45.8695 0049910 358.8791 79.4461 1.00271159 46693
UTC large
Height (km)
Speed (km/s)
/
Latitude / Longitude
Inclination (degrees)
Orbital Period (minutes)
Azimuth
Elevation
Range (km)
Doppler Factor

Next 0 passes for location: London (51.5072 / 0.1276)

Sorry there are no passes over London.